Regional Weather Roundup
Issued by NWS Sterling, VA

Home | Current Version | Previous Version | Text Only | Print | Product List | Glossary On
Versions: 1 2 3 4 5 6 7 8 9 10 11 12 13 14 15 16 17 18 19 20 21 22 23 24 25 26 27 28 29 30 31 32 33 34 35 36 37 38 39 40 41 42 43 44 45 46 47 48 49 50
779
ASUS41 KLWX 260710
RWRLWX

REGIONAL WEATHER ROUNDUP
NATIONAL WEATHER SERVICE BALTIMORE MD/WASHINGTON DC
300 AM EDT MON SEP 26 2016

Note: "FAIR" indicates few or no clouds below 12,000 feet
with no significant weather and/or obstructions to visibility.
 TC=TEMPERATURE CELSIUS

 * =Non NWS site. Station does not report precipitation (e.g. rain,
    snow, etc.), thunder, or fog.

DCZ001-MDZ009-015-VAZ040>042-051-053>054-260800-
WASHINGTON METRO

CITY           SKY/WX    TMP DP  RH WIND       PRES   REMARKS
WASHINGTON NAT MOCLDY    65  54  67 S8        30.16F
DULLES         CLOUDY    60  54  80 CALM      30.15F
ANDREWS AFB    MOCLDY    59  53  79 S2        30.14F
FT BELVOIR     CLOUDY    58  55  91 CALM      30.15F
QUANTICO         N/A     66  55  67 VRB3      30.16F
COLLEGE PARK*  PTCLDY    54  50  87 CALM      30.16S
LEESBURG*      CLOUDY    61  59  94 SW10      30.16F
MANASSAS*      CLOUDY    61  61 100 CALM      30.16F
GAITHERSBURG*  MOCLDY    54  48  82 CALM      30.19F

$$

MDZ006>007-011-014-260800-
BALTIMORE METRO

CITY           SKY/WX    TMP DP  RH WIND       PRES   REMARKS
BWI AIRPORT    PTCLDY    52  49  89 CALM      30.16F
MD SCIENCE CTR   N/A     62  50  64 MISG      30.16F
ANNAPOLIS      PTCLDY    62  55  77 S3        30.15F
FORT MEADE*    CLEAR     50  48  93 CALM      30.18F

$$

MDZ012-015-019>023-260800-
MARYLAND EASTERN SHORE

CITY           SKY/WX    TMP DP  RH WIND       PRES   REMARKS
OCEAN CITY     CLEAR     52  50  93 CALM      30.17F
SALISBURY      CLEAR     52  51  97 CALM      30.17F
BAY BRIDGE AP* PTCLDY    63  55  77 MISG      30.16S
CAMBRIDGE*     PTCLDY    52  50  93 CALM      30.16F

$$

MDZ017>025-260800-
SOUTHERN MARYLAND

CITY           SKY/WX    TMP DP  RH WIND       PRES   REMARKS
PATUXENT RIVER CLOUDY    64  56  75 S6        30.15F
ST INIGOES     CLOUDY    61  58  90 CALM      30.15F
LEONARDTOWN*   CLOUDY    61  54  77 CALM      30.17F

$$

MDZ003>005-260800-
NORTH CENTRAL MARYLAND

CITY           SKY/WX    TMP DP  RH WIND       PRES   REMARKS
FREDERICK*     NOT AVBL
HAGERSTOWN APT CLOUDY    59  51  75 CALM      30.14F

$$

MDZ501>502-260800-
WESTERN MARYLAND

CITY           SKY/WX    TMP DP  RH WIND       PRES   REMARKS
OAKLAND*       CLEAR     52  48  87 SE10      30.13F
CUMBERLAND*    MOCLDY    52  52 100 CALM      30.16F

$$

VAZ025>031-260800-
SHENANDOAH VALLEY

CITY           SKY/WX    TMP DP  RH WIND       PRES   REMARKS
WINCHESTER*    CLOUDY    57  54  88 CALM      30.13F
FRONT ROYAL*   CLOUDY    57  55  94 CALM      30.12F
LURAY*         CLOUDY    63  63 100 CALM      30.14F
NEW MARKET*    CLOUDY   N/A N/A N/A CALM      30.13F
STAUNTON*      CLOUDY    62  59  88 S5        30.17S
WAYNESBORO*    CLOUDY    61  58  91 E7        30.15F

$$

WVZ021-048>050-054>055-260800-
EASTERN WEST VIRGINIA PANHANDLE

CITY           SKY/WX    TMP DP  RH WIND       PRES   REMARKS
MARTINSBURG    CLOUDY    54  52  93 CALM      30.13F
PETERSBURG*    CLOUDY    62  52  70 CALM      30.12F

$$

VAZ036>039-050-260800-
CENTRAL FOOTHILLS

CITY           SKY/WX    TMP DP  RH WIND       PRES   REMARKS
CHARLOTTESVILL CLOUDY    63  59  87 CALM      30.16F
CULPEPER*      CLOUDY    62  60  94 CALM      30.16F
ORANGE*          N/A     63  63 100 CALM      30.17F
GORDONSVILLE*  CLOUDY    63  59  88 CALM      30.15F
WARRENTON*     CLOUDY    62  56  80 CALM      30.15F

$$

VAZ055>057-260800-
NORTH AND CENTRAL PIEDMONT

CITY           SKY/WX    TMP DP  RH WIND       PRES   REMARKS
FREDERICKSBRG* CLOUDY    64  58  83 CALM      30.15F
STAFFORD*      CLOUDY    60  60 100 CALM      30.19F

$$

NCZ024-NYZ072-PAZ021-071-VAZ022-071-260800-
OTHER REGIONAL OBSERVATIONS

CITY           SKY/WX    TMP DP  RH WIND       PRES   REMARKS
NEW YORK CITY  CLEAR     58  40  51 CALM      30.21F
PHILADELPHIA   PTCLDY    56  47  71 CALM      30.17F
PITTSBURGH     CLOUDY    57  49  74 CALM      30.04F
ROANOKE        CLOUDY    64  64 100 SE7       30.16F
RICHMOND       CLOUDY    63  57  81 CALM      30.15F
RALEIGH        CLOUDY    68  60  75 SE6       30.14F

$$

ANZ530>537-260800-
MARINE OBSERVATIONS

STATION/POSITION TIME  TEMP    WIND        PRES
                       AIR SEA DIR/SP/G
                 (UTC) (F)     (DEG/KT/KT) (MB)
THOMAS PT LIGHT  0700   67 75  160/ 13/ 14 1022.1F
BALT KEY BRIDGE  0648          180/  3/  4 1021.1F
COVE POINT       0648          180/ 10/ 12 1021.7F
LEWISETTA        0648          170/  7/  8 1020.7F
SOLOMONS ISLAND  0642          170/  5/  7   N/A
PINEY POINT      0642          180/ 10/ 12   N/A

$$





USA.gov is the U.S. government's official web portal to all federal, state and local government web resources and services.